Total_Precipitation_Accumulation
2.91 3.25 3.88 3.41 2.75 2.60 2.50 2.34 2.23 2.15 2.22 2.24 2.27 2.17 2.10 2.21 2.43 2.70 2.92 3.11 3.17 3.08 2.95 3.08 3.25 3.35 3.14 2.96 2.75 2.54 2.43 2.22 2.14 2.06 1.95 1.90 1.92 2.11 2.52 2.68 2.69 1.89 1.82
2.24 2.63 3.35 3.11 2.57 2.37 2.26 2.13 2.11 2.17 2.19 2.14 2.27 2.20 2.25 2.42 2.59 2.75 3.04 3.08 2.90 2.71 2.67 2.78 2.90 2.87 2.75 2.57 2.48 2.42 2.45 2.45 2.38 2.48 2.39 2.13 2.04 2.18 2.44 2.52 2.57 1.79 1.72
1.78 2.11 2.55 2.71 2.29 2.01 2.01 1.96 2.00 2.14 2.11 2.08 2.15 2.20 2.29 2.53 2.77 2.97 2.97 2.76 2.61 2.50 2.38 2.49 2.52 2.38 2.30 2.08 2.19 2.29 2.43 2.61 2.73 2.98 3.19 2.22 1.81 2.20 2.17 2.10 1.93 1.74 1.67
1.55 1.73 2.10 2.47 2.19 1.87 1.93 1.94 2.04 2.08 2.02 2.01 2.10 2.21 2.41 2.72 2.93 2.91 2.71 2.55 2.48 2.34 2.23 2.25 2.30 2.16 1.94 1.79 1.94 2.17 2.36 2.48 2.69 3.10 3.01 2.11 1.64 1.84 1.90 1.81 1.67 1.72 1.63
1.53 1.69 2.15 2.40 2.24 2.07 2.02 2.09 2.07 1.99 1.96 2.06 2.22 2.44 2.75 2.82 2.84 2.67 2.47 2.33 2.22 2.06 2.05 2.05 2.15 2.08 1.88 1.76 1.83 2.01 2.25 2.50 2.85 2.75 2.09 2.15 2.08 2.02 1.82 1.74 1.68 1.63 1.47
1.57 1.74 1.99 2.22 2.13 2.09 1.95 1.95 2.04 2.10 2.13 2.24 2.26 2.42 2.63 2.61 2.60 2.44 2.20 2.07 1.99 1.85 1.83 1.94 2.11 2.13 1.90 1.83 1.85 1.93 2.30 2.65 2.62 1.95 1.72 1.79 1.93 2.11 1.99 2.00 1.91 1.71 1.50
1.46 1.66 1.79 2.11 2.20 2.15 2.05 2.08 2.12 2.14 2.19 2.23 2.19 2.28 2.31 2.35 2.39 2.22 1.97 1.91 1.86 1.68 1.67 2.00 2.19 2.10 1.84 1.78 1.85 1.96 2.37 2.66 2.03 1.60 1.58 1.69 1.79 1.89 2.12 2.35 2.35 2.04 1.72
1.43 1.56 1.70 2.05 2.23 2.28 2.19 2.18 2.13 2.17 2.25 2.17 2.12 2.19 2.11 1.99 2.09 2.01 1.80 1.77 1.73 1.68 1.83 2.12 2.20 2.00 1.79 1.78 1.91 2.01 2.19 2.16 1.52 1.41 1.30 1.36 1.46 1.65 2.01 2.33 2.46 2.27 2.05
1.49 1.55 1.84 2.09 2.10 2.10 2.31 2.27 2.23 2.23 2.32 2.27 2.14 2.12 2.00 1.80 1.76 1.71 1.75 1.81 1.72 1.85 2.07 2.26 2.22 2.01 1.79 1.83 1.93 2.05 2.14 2.20 1.77 1.53 1.24 1.28 1.42 1.78 2.28 2.41 2.41 2.31 2.20
1.79 1.67 1.82 1.97 1.87 1.79 1.89 2.07 2.12 2.06 2.03 2.09 2.11 2.04 2.09 2.01 1.83 1.79 1.76 1.83 1.91 2.02 2.33 2.46 2.34 2.17 1.89 1.90 2.02 2.21 2.29 2.15 1.99 1.65 1.40 1.25 1.47 1.92 2.37 2.49 2.47 2.45 2.29
2.01 1.91 1.79 1.69 1.66 1.62 1.51 1.61 1.89 2.02 2.01 2.06 2.10 2.06 2.13 2.24 1.99 2.03 1.98 2.24 2.33 2.31 2.59 2.79 2.78 2.55 2.23 2.08 2.25 2.46 2.26 2.16 2.11 1.81 1.52 1.33 1.58 1.98 2.40 2.51 2.44 2.42 2.31
2.24 2.01 1.91 1.79 1.61 1.41 1.28 1.53 1.90 1.74 1.86 2.04 2.24 2.19 2.30 2.56 2.62 2.10 2.34 2.81 2.99 3.02 3.12 3.29 3.35 2.82 2.31 2.15 2.65 2.86 2.20 2.06 2.05 1.87 1.67 1.63 1.93 2.25 2.56 2.52 2.45 2.48 2.31
2.57 2.32 2.19 2.00 1.73 1.49 1.59 1.44 1.59 1.82 2.07 2.21 2.23 2.25 2.38 2.29 2.22 2.21 2.52 3.00 3.20 3.20 3.16 3.34 3.29 2.76 2.73 2.92 2.87 2.63 2.14 2.30 2.31 2.16 2.04 2.16 2.35 2.70 3.08 2.85 2.57 2.56 2.48
2.69 2.56 2.58 2.24 2.09 2.11 1.87 1.55 1.46 1.51 1.74 2.07 2.39 2.35 2.47 2.78 2.79 2.72 2.88 2.96 3.07 3.27 3.58 3.31 3.43 3.28 3.25 3.10 2.93 2.72 2.50 2.64 2.53 2.62 2.53 2.32 2.44 2.87 3.41 3.41 3.00 2.73 2.59
2.64 2.67 2.75 2.58 2.42 2.46 2.20 1.95 1.70 1.82 1.85 1.98 2.23 2.43 2.48 2.90 3.21 3.17 3.09 3.12 3.04 3.02 3.18 3.28 3.20 3.50 3.67 3.27 2.85 2.67 2.69 2.78 2.67 2.67 2.53 2.41 2.40 2.64 3.13 3.45 3.39 3.21 2.97
2.89 2.98 2.82 2.80 2.78 2.73 2.61 2.53 2.45 2.19 2.29 2.24 2.29 2.35 2.45 2.83 3.28 3.45 3.34 3.25 3.05 2.97 3.06 3.18 3.30 3.73 3.69 3.52 3.11 2.83 2.71 2.67 2.51 2.44 2.55 2.75 2.61 2.53 2.73 3.16 3.56 3.58 3.49
3.23 3.30 3.31 3.27 3.41 3.36 3.17 3.03 2.80 2.61 2.49 2.52 2.63 2.70 2.64 2.78 3.15 3.20 3.06 2.94 2.91 2.98 3.17 3.18 3.36 3.55 3.25 3.27 3.10 2.86 2.63 2.41 2.26 2.25 2.44 2.64 2.53 2.52 2.74 3.02 3.34 3.55 3.75
3.41 3.61 3.80 3.75 3.79 3.64 3.64 3.59 3.31 3.07 2.90 2.75 2.71 2.77 2.63 2.65 2.83 3.13 2.93 2.80 3.09 3.08 3.19 3.48 3.61 3.53 3.47 3.50 3.23 2.84 2.58 2.46 2.11 2.01 2.00 2.19 2.44 2.22 2.58 2.92 3.05 3.23 3.69
3.80 4.10 4.32 4.33 4.20 3.94 3.97 3.93 3.75 3.61 3.31 2.96 2.79 2.73 2.61 2.61 2.77 3.11 3.13 3.23 3.26 3.36 3.39 3.20 3.61 3.66 3.55 3.58 3.12 2.91 2.58 2.29 2.10 1.92 1.84 1.83 2.07 2.29 2.43 2.55 2.72 2.92 3.47
4.29 4.70 4.57 4.53 4.74 4.60 4.45 4.32 4.03 3.57 3.15 3.00 2.96 2.79 2.66 2.74 2.86 3.30 3.17 3.16 3.22 3.42 3.52 3.48 3.62 3.63 3.35 3.32 2.96 2.90 2.50 2.01 1.93 1.88 1.72 1.75 1.87 1.93 2.27 2.61 2.90 2.65 3.00
4.35 4.76 4.92 4.97 4.88 4.71 4.37 4.06 3.83 3.58 3.36 3.11 2.93 2.83 2.75 2.69 2.90 3.38 3.17 3.43 3.36 3.37 3.42 3.46 3.60 3.50 3.19 3.38 3.46 3.04 2.44 2.00 1.97 1.75 1.70 1.75 1.82 1.82 2.20 2.68 2.95 2.88 2.60
3.98 4.44 4.75 4.95 4.83 4.45 4.10 3.94 3.85 3.80 3.39 3.11 3.10 3.23 3.06 3.06 3.12 3.17 3.40 3.33 3.37 3.51 3.46 3.44 3.60 3.39 3.02 3.30 3.66 3.72 3.01 2.58 2.10 1.59 1.71 1.83 2.01 2.10 2.18 2.34 2.56 2.84 2.84
3.55 3.85 3.95 4.14 4.11 3.95 4.00 4.02 3.99 4.00 3.59 3.53 3.54 3.54 3.33 3.33 3.34 3.34 3.33 3.24 3.26 3.07 3.16 3.25 3.28 3.31 3.24 3.18 3.49 3.83 3.38 2.88 2.48 1.87 1.74 1.78 2.05 2.38 2.38 2.40 2.45 2.75 2.94
3.14 3.46 3.67 3.73 3.68 3.61 3.73 3.80 3.71 3.53 3.42 3.59 3.86 3.79 3.51 3.30 3.17 2.98 2.93 3.10 3.12 2.92 2.98 2.64 2.81 3.02 3.01 2.87 3.15 3.20 3.22 3.22 3.12 2.43 1.97 1.80 1.96 2.18 2.33 2.27 2.32 2.59 2.91
2.81 3.09 3.28 3.54 3.63 3.57 3.65 3.64 3.68 3.51 3.51 3.57 3.59 3.64 3.44 3.26 2.94 2.60 2.63 2.84 2.80 2.71 2.62 2.53 2.73 2.58 2.50 2.57 2.80 2.99 3.07 3.16 3.04 2.86 2.41 2.35 2.30 2.15 2.10 2.16 2.39 2.55 2.79
2.49 2.62 2.72 2.93 3.19 3.37 3.42 3.39 3.44 3.39 3.38 3.34 3.32 3.21 3.02 2.87 2.66 2.36 2.24 2.42 2.53 2.57 2.53 2.50 2.59 2.47 2.48 2.62 2.62 2.69 2.94 2.94 2.90 3.06 2.63 2.47 2.48 2.22 2.15 2.25 2.28 2.50 2.62